Portada
METAR-TAF:

METAR-TAF

Aeroports :

Fasa, Iran

latitud: 28-58N, longitud: 053-41E, altitud: 1383 m

Observació

L'informe es va fer fa 33 minuts, a les 04:00 UTC
Vent calma
Temperatura 25°C
Humitat 18%
Pressió 1010 hPa
Visibilitat 10 km o més
sense núvols per sota de 1500 mi sense presència de cumulonimbus.

METAR: OISF 220400Z 00000KT CAVOK 25/M01 Q1010 A2983

Hora: 09:03 (04:33 UTC)


TAF: manca

Observacions i pronòstics meteorològics de més de 4000 aeroports (METAR i TAF).

Les estacions disponibles són els punts grocs i vermells al mapa.

Posi el ratolí al punt desitjat per veure el nom de l'estació.

Feu clic per veure les observacions i els pronòstics meteorològics.

Per canviar el mapa: feu clic els botons verds amb una creu de color negre per apropar; al botó verd amb un guió per allunyar la imatge; o en les fletxes verdes per a mapes adjacents.


METAR-TAF: